Location: Guferjoch
(46.7462°N, 8.4506°E)
Time: 00:32:43
(UTC+00:00)

Cosmos 1515 - Pass Details

Date: 14 July 2020
Orbit: 507 x 515 km, 82.5° (Epoch: 03 August)

Event Time Altitude Azimuth Distance (km) Brightness Sun altitude
Rises 01:09:09 0° 346° (NNW) 2,639 8.2 -18.2°
Reaches altitude 10° 01:11:19 10° 341° (NNW) 1,748 7.0 -18.0°
Maximum altitude 01:15:03 52° 266° (W) 650 3.9 -17.8°
Enters shadow 01:15:51 42° 223° (SW) 739 4.0 -17.7°
